Madison, MN

2:08 AM CST on February 21, 2018 (GMT -0600)
Madison-Lac Qui Parle County

Weather History for KDXX - October, 2012

Change the Weather History Date:

Friday, October 5, 2012

  Actual Average (KAQP) Record (KAQP)
Temperature  
Mean Temperature 36 °F -  
Max Temperature 46 °F 62 °F 87 °F (2011)
Min Temperature 26 °F 37 °F 26 °F (2001)
Degree Days  
Heating Degree Days 29    
Moisture  
Dew Point 23 °F    
Average Humidity 58    
Maximum Humidity 86    
Minimum Humidity 37    
Precipitation  
Precipitation 0.00 in - - ()
Sea Level Pressure  
Sea Level Pressure 30.23 in    
Wind  
Wind Speed 13 mph (NW)    
Max Wind Speed 23 mph    
Max Gust Speed 32 mph    
Visibility 10 miles    
Events      
Averages and records for this station are not official NWS values.
T = Trace of Precipitation, MM = Missing Value Source: NWS Daily Summary

Daily Weather History Graph

Daily Weather History Graph

Search for Another Location

Airport or City:

Trip Planner

Search our weather history database for the weather conditions in past years. The results will help you decide how hot, cold, wet, or windy it might be!

Date:

Astronomy

Oct. 05, 2012 Rise Set
Actual Time 7:28 AM CDT 6:56 PM CDT
Civil Twilight 6:59 AM CDT 7:26 PM CDT
Nautical Twilight 6:25 AM CDT 7:59 PM CDT
Astronomical Twilight 5:50 AM CDT 8:34 PM CDT
Moon 10:08 PM CDT (10/5) 12:49 PM CDT (10/5)
Length of Visible Light 12h 27m
Length of Day
11h 28m
Waning Gibbous, 74% of the Moon is Illuminated
Oct 5
Waning Gibbous
Oct 8
Last Quarter
Oct 15
New
Oct 21
First Quarter
Oct 29
Full

Hourly Weather History & Observations

Time (CDT) Temp. Windchill Dew Point Humidity Pressure Visibility Wind Dir Wind Speed Gust Speed Precip Events Conditions
12:14 AM 39.2 °F 31.6 °F 24.8 °F 56% 30.24 in 10.0 mi WNW 12.7 mph - N/A   Overcast
12:33 AM 37.4 °F 29.8 °F 24.8 °F 60% 30.24 in 10.0 mi WNW 11.5 mph - N/A   Scattered Clouds
12:54 AM 35.6 °F 28.0 °F 24.8 °F 65% 30.25 in 10.0 mi West 10.4 mph - N/A   Clear
1:14 AM 35.6 °F 28.6 °F 24.8 °F 65% 30.25 in 10.0 mi WNW 9.2 mph - N/A   Scattered Clouds
1:33 AM 35.6 °F 27.5 °F 24.8 °F 65% 30.24 in 10.0 mi WNW 11.5 mph - N/A   Mostly Cloudy
1:54 AM 35.6 °F 28.0 °F 24.8 °F 65% 30.24 in 10.0 mi WNW 10.4 mph - N/A   Scattered Clouds
2:14 AM 35.6 °F 28.0 °F 24.8 °F 65% 30.24 in 10.0 mi WNW 10.4 mph - N/A   Clear
2:34 AM 35.6 °F 28.0 °F 24.8 °F 65% 30.23 in 10.0 mi WNW 10.4 mph - N/A   Clear
2:54 AM 35.6 °F 27.1 °F 24.8 °F 65% 30.22 in 10.0 mi WNW 12.7 mph - N/A   Clear
3:14 AM 33.8 °F 26.4 °F 24.8 °F 70% 30.22 in 10.0 mi WNW 9.2 mph - N/A   Clear
3:34 AM 33.8 °F 28.6 °F 24.8 °F 70% 30.22 in 10.0 mi West 5.8 mph - N/A   Clear
3:54 AM 30.2 °F 22.6 °F 24.8 °F 80% 30.22 in 10.0 mi West 8.1 mph - N/A   Clear
4:14 AM 30.2 °F 23.4 °F 24.8 °F 80% 30.22 in 10.0 mi West 6.9 mph - N/A   Clear
4:34 AM 28.4 °F 21.2 °F 24.8 °F 86% 30.23 in 10.0 mi West 6.9 mph - N/A   Clear
4:54 AM 28.4 °F 20.4 °F 24.8 °F 86% 30.23 in 10.0 mi West 8.1 mph - N/A   Clear
5:14 AM 28.4 °F 19.7 °F 24.8 °F 86% 30.22 in 10.0 mi West 9.2 mph - N/A   Clear
5:34 AM 28.4 °F 20.4 °F 24.8 °F 86% 30.22 in 10.0 mi West 8.1 mph - N/A   Clear
5:54 AM 26.6 °F 19.1 °F 23.0 °F 86% 30.23 in 10.0 mi West 6.9 mph - N/A   Clear
6:14 AM 26.6 °F 18.2 °F 23.0 °F 86% 30.23 in 10.0 mi West 8.1 mph - N/A   Clear
6:34 AM 26.6 °F 18.2 °F 23.0 °F 86% 30.23 in 10.0 mi West 8.1 mph - N/A   Clear
6:54 AM 26.6 °F 18.2 °F 21.2 °F 80% 30.23 in 10.0 mi West 8.1 mph - N/A   Clear
7:13 AM 28.4 °F 19.7 °F 23.0 °F 80% 30.22 in 10.0 mi West 9.2 mph - N/A   Clear
7:34 AM 30.2 °F 21.3 °F 24.8 °F 80% 30.22 in 10.0 mi West 10.4 mph - N/A   Clear
7:54 AM 28.4 °F 19.1 °F 23.0 °F 80% 30.23 in 10.0 mi West 10.4 mph - N/A   Clear
8:13 AM 30.2 °F 21.9 °F 24.8 °F 80% 30.23 in 10.0 mi West 9.2 mph - N/A   Clear
8:34 AM 30.2 °F 20.8 °F 24.8 °F 80% 30.24 in 10.0 mi West 11.5 mph - N/A   Clear
8:54 AM 32.0 °F 23.0 °F 24.8 °F 75% 30.25 in 10.0 mi West 11.5 mph 17.3 mph N/A   Clear
9:13 AM 33.8 °F 23.2 °F 24.8 °F 70% 30.25 in 10.0 mi West 17.3 mph - N/A   Clear
9:34 AM 35.6 °F 25.9 °F 24.8 °F 65% 30.25 in 10.0 mi WNW 16.1 mph 21.9 mph N/A   Clear
9:54 AM 35.6 °F 24.5 °F 21.2 °F 56% 30.25 in 10.0 mi WNW 20.7 mph 29.9 mph N/A   Clear
10:13 AM 37.4 °F 26.9 °F 21.2 °F 52% 30.24 in 10.0 mi WNW 20.7 mph 27.6 mph N/A   Clear
10:34 AM 37.4 °F 26.6 °F 21.2 °F 52% 30.24 in 10.0 mi NW 21.9 mph 26.5 mph N/A   Clear
10:54 AM 39.2 °F 29.8 °F 23.0 °F 52% 30.23 in 10.0 mi NW 18.4 mph 27.6 mph N/A   Clear
11:13 AM 39.2 °F 29.6 °F 21.2 °F 49% 30.23 in 10.0 mi NW 19.6 mph 28.8 mph N/A   Clear
11:34 AM 41.0 °F 32.5 °F 21.2 °F 45% 30.23 in 10.0 mi NW 17.3 mph 29.9 mph N/A   Clear
11:53 AM 42.8 °F 34.3 °F 21.2 °F 42% 30.22 in 10.0 mi NW 19.6 mph 28.8 mph N/A   Clear
12:14 PM 42.8 °F 35.1 °F 21.2 °F 42% 30.22 in 10.0 mi NW 16.1 mph 32.2 mph N/A   Clear
12:34 PM 42.8 °F 34.0 °F 21.2 °F 42% 30.23 in 10.0 mi NW 20.7 mph 28.8 mph N/A   Clear
12:53 PM 44.6 °F 36.6 °F 21.2 °F 39% 30.23 in 10.0 mi NW 19.6 mph 28.8 mph N/A   Scattered Clouds
1:34 PM 44.6 °F 36.6 °F 21.2 °F 39% 30.22 in 10.0 mi NW 19.6 mph 27.6 mph N/A   Scattered Clouds
1:53 PM 44.6 °F 36.6 °F 21.2 °F 39% 30.22 in 10.0 mi NW 19.6 mph 27.6 mph N/A   Scattered Clouds
2:14 PM 44.6 °F 36.1 °F 21.2 °F 39% 30.21 in 10.0 mi NW 21.9 mph 31.1 mph N/A   Scattered Clouds
2:34 PM 46.4 °F 39.5 °F 21.2 °F 37% 30.21 in 10.0 mi NW 17.3 mph 26.5 mph N/A   Mostly Cloudy
2:53 PM 46.4 °F 39.5 °F 21.2 °F 37% 30.21 in 10.0 mi NW 17.3 mph 27.6 mph N/A   Mostly Cloudy
3:14 PM 46.4 °F 39.0 °F 21.2 °F 37% 30.21 in 10.0 mi NW 19.6 mph 28.8 mph N/A   Mostly Cloudy
3:34 PM 46.4 °F 38.7 °F 21.2 °F 37% 30.21 in 10.0 mi NNW 20.7 mph 27.6 mph N/A   Overcast
3:53 PM 44.6 °F 36.1 °F 21.2 °F 39% 30.21 in 10.0 mi NNW 21.9 mph 28.8 mph N/A   Mostly Cloudy
4:14 PM 44.6 °F 36.6 °F 21.2 °F 39% 30.21 in 10.0 mi NNW 19.6 mph 29.9 mph N/A   Mostly Cloudy
4:34 PM 44.6 °F 35.9 °F 21.2 °F 39% 30.21 in 10.0 mi NNW 23.0 mph 28.8 mph N/A   Mostly Cloudy
4:53 PM 44.6 °F 36.4 °F 21.2 °F 39% 30.21 in 10.0 mi NW 20.7 mph 31.1 mph N/A   Mostly Cloudy
5:14 PM 44.6 °F 35.9 °F 21.2 °F 39% 30.22 in 10.0 mi NNW 23.0 mph 28.8 mph N/A   Overcast
5:34 PM 44.6 °F 36.1 °F 21.2 °F 39% 30.22 in 10.0 mi NNW 21.9 mph 26.5 mph N/A   Overcast
5:53 PM 42.8 °F 34.3 °F 21.2 °F 42% 30.22 in 10.0 mi NW 19.6 mph 26.5 mph N/A   Overcast
6:14 PM 42.8 °F 34.8 °F 21.2 °F 42% 30.22 in 10.0 mi NNW 17.3 mph 24.2 mph N/A   Overcast
6:34 PM 41.0 °F 31.4 °F 23.0 °F 49% 30.23 in 10.0 mi NNW 21.9 mph - N/A   Overcast
6:53 PM 41.0 °F 32.5 °F 23.0 °F 49% 30.24 in 10.0 mi NNW 17.3 mph - N/A   Overcast
7:14 PM 39.2 °F 30.5 °F 21.2 °F 49% 30.24 in 10.0 mi NNW 16.1 mph 23.0 mph N/A   Overcast
7:34 PM 39.2 °F 30.5 °F 21.2 °F 49% 30.24 in 10.0 mi NW 16.1 mph 24.2 mph N/A   Overcast
7:53 PM 39.2 °F 29.6 °F 21.2 °F 49% 30.25 in 10.0 mi NW 19.6 mph - N/A   Overcast
8:14 PM 39.2 °F 29.8 °F 21.2 °F 49% 30.25 in 10.0 mi NW 18.4 mph 27.6 mph N/A   Overcast
8:34 PM 39.2 °F 29.8 °F 21.2 °F 49% 30.25 in 10.0 mi NW 18.4 mph 26.5 mph N/A   Overcast
8:53 PM 39.2 °F 30.5 °F 21.2 °F 49% 30.25 in 10.0 mi NW 16.1 mph 21.9 mph N/A   Overcast
9:14 PM 39.2 °F 31.6 °F 21.2 °F 49% 30.25 in 10.0 mi NW 12.7 mph 21.9 mph N/A   Overcast
9:33 PM 39.2 °F 30.5 °F 23.0 °F 52% 30.26 in 10.0 mi NW 16.1 mph 21.9 mph N/A   Overcast
9:54 PM 39.2 °F 30.2 °F 24.8 °F 56% 30.26 in 10.0 mi NNW 17.3 mph 24.2 mph N/A   Overcast
10:14 PM 39.2 °F 30.8 °F 24.8 °F 56% 30.26 in 10.0 mi NW 15.0 mph 20.7 mph N/A   Overcast
10:33 PM 37.4 °F 27.5 °F 24.8 °F 60% 30.26 in 10.0 mi NNW 18.4 mph 25.3 mph N/A   Overcast
10:54 PM 37.4 °F 27.2 °F 26.6 °F 65% 30.26 in 10.0 mi NNW 19.6 mph 25.3 mph N/A   Overcast
11:33 PM 35.6 °F 25.9 °F 26.6 °F 70% 30.27 in 10.0 mi NW 16.1 mph 23.0 mph N/A   Scattered Clouds
11:54 PM 35.6 °F 25.5 °F 26.6 °F 70% 30.27 in 10.0 mi NW 17.3 mph 23.0 mph N/A   Mostly Cloudy